Hot Springs, VA

11:35 PM EDT on June 27, 2017 (GMT -0400)
Ingalls

Weather History for KHSP - January, 2014

Change the Weather History Date:

Saturday, January 11, 2014

  Actual Average Record
Temperature  
Mean Temperature 42 °F -  
Max Temperature 50 °F 33 °F 51 °F (2006)
Min Temperature 33 °F 19 °F -4 °F (1997)
Degree Days  
Heating Degree Days 22    
Moisture  
Dew Point 45 °F    
Average Humidity 98    
Maximum Humidity 100    
Minimum Humidity 81    
Precipitation  
Precipitation 0.60 in - - ()
Sea Level Pressure  
Sea Level Pressure 29.74 in    
Wind  
Wind Speed 18 mph (SW)    
Max Wind Speed 28 mph    
Max Gust Speed 37 mph    
Visibility 5 miles    
Events Rain , Thunderstorm    
Averages and records for this station are not official NWS values.
T = Trace of Precipitation, MM = Missing Value Source: NWS Daily Summary

Daily Weather History Graph

Daily Weather History Graph

Search for Another Location

Airport or City:

Trip Planner

Search our weather history database for the weather conditions in past years. The results will help you decide how hot, cold, wet, or windy it might be!

Date:

Astronomy

Jan. 11, 2014 Rise Set
Actual Time 7:35 AM EST 5:19 PM EST
Civil Twilight 7:06 AM EST 5:48 PM EST
Nautical Twilight 6:33 AM EST 6:21 PM EST
Astronomical Twilight 6:01 AM EST 6:53 PM EST
Moon 2:02 PM EST (1/11) 3:39 AM EST (1/11)
Length of Visible Light 10h 42m
Length of Day
9h 44m
Waxing Gibbous, 83% of the Moon is Illuminated
Jan 11
Waxing Gibbous
Jan 15
Full
Jan 24
Last Quarter
Jan 30
New
Feb 6
First Quarter

Hourly Weather History & Observations

Time (EST) Temp. Windchill Dew Point Humidity Pressure Visibility Wind Dir Wind Speed Gust Speed Precip Events Conditions
12:35 AM 46.4 °F 39.5 °F 46.4 °F 100% 30.06 in 0.2 mi South 17.3 mph 24.2 mph N/A   Unknown
1:16 AM 46.4 °F 39.2 °F 46.4 °F 100% 30.04 in 0.2 mi South 18.4 mph 24.2 mph N/A   Unknown
1:35 AM 46.4 °F 39.5 °F 46.4 °F 100% 30.04 in 0.2 mi South 17.3 mph 25.3 mph 0.01 in   Unknown
1:55 AM 46.4 °F 39.5 °F 46.4 °F 100% 30.04 in 0.2 mi South 17.3 mph 24.2 mph N/A   Unknown
2:15 AM 48.2 °F - 48.2 °F 100% 30.03 in 0.2 mi South 19.6 mph 26.5 mph N/A   Unknown
2:35 AM 48.2 °F - 48.2 °F 100% 30.02 in 0.2 mi South 11.5 mph 21.9 mph N/A Rain Heavy Rain
2:55 AM 48.2 °F - 48.2 °F 100% 30.01 in 0.2 mi SSW 15.0 mph 21.9 mph N/A Rain Heavy Rain
3:15 AM 48.2 °F - 48.2 °F 100% 29.99 in 0.2 mi SSW 16.1 mph 24.2 mph N/A Rain Heavy Rain
3:35 AM 48.2 °F - 48.2 °F 100% 29.97 in 0.2 mi South 15.0 mph 20.7 mph 0.01 in Rain Rain
3:55 AM 48.2 °F - 48.2 °F 100% 29.95 in 0.2 mi South 15.0 mph 24.2 mph N/A   Heavy Drizzle
4:15 AM 48.2 °F - 48.2 °F 100% 29.95 in 0.2 mi South 17.3 mph 21.9 mph N/A Rain Rain
4:35 AM 48.2 °F - 48.2 °F 100% 29.94 in 0.2 mi South 13.8 mph 21.9 mph N/A Rain Rain
4:55 AM 48.2 °F - 48.2 °F 100% 29.91 in 0.2 mi South 17.3 mph 23.0 mph N/A Rain Heavy Rain
5:16 AM 46.4 °F 39.8 °F 46.4 °F 100% 29.91 in 0.2 mi South 16.1 mph 23.0 mph N/A   Unknown
5:35 AM 48.2 °F - 48.2 °F 100% 29.89 in 0.2 mi South 17.3 mph 25.3 mph N/A   Unknown
6:15 AM 48.2 °F - 48.2 °F 100% 29.88 in 0.2 mi SSW 19.6 mph 26.5 mph N/A   Unknown
6:35 AM 48.2 °F - 48.2 °F 100% 29.87 in 0.2 mi South 13.8 mph 23.0 mph 0.01 in Rain Heavy Rain
6:55 AM 46.4 °F 41.1 °F 46.4 °F 100% 29.85 in 0.2 mi South 11.5 mph 19.6 mph N/A   Unknown
7:15 AM 48.2 °F - 48.2 °F 100% 29.84 in 0.2 mi SSW 18.4 mph 26.5 mph N/A   Unknown
7:36 AM 48.2 °F - 48.2 °F 100% 29.83 in 0.2 mi SSW 15.0 mph 27.6 mph 0.09 in Rain Rain
7:55 AM 48.2 °F - 48.2 °F 100% 29.81 in 0.2 mi South 15.0 mph 27.6 mph N/A   Heavy Drizzle
8:15 AM 48.2 °F - 48.2 °F 100% 29.80 in 0.2 mi South 12.7 mph 31.1 mph N/A Rain Rain
8:35 AM 46.4 °F 39.5 °F 46.4 °F 100% 29.78 in 0.2 mi South 17.3 mph 29.9 mph 0.01 in   Unknown
8:55 AM 46.4 °F 39.2 °F 46.4 °F 100% 29.75 in 0.2 mi South 18.4 mph 24.2 mph N/A   Unknown
9:15 AM 46.4 °F 39.0 °F 46.4 °F 100% 29.74 in 0.2 mi South 19.6 mph 27.6 mph N/A   Unknown
9:35 AM 46.4 °F 39.5 °F 46.4 °F 100% 29.74 in 0.2 mi South 17.3 mph 28.8 mph N/A   Unknown
9:55 AM 48.2 °F - 48.2 °F 100% 29.75 in 7.0 mi South 19.6 mph 33.4 mph N/A   Overcast
10:15 AM 50.0 °F - 50.0 °F 100% 29.74 in 10.0 mi South 21.9 mph 36.8 mph N/A   Overcast
10:35 AM 48.2 °F - 48.2 °F 100% 29.73 in 0.2 mi SSW 17.3 mph 25.3 mph N/A Rain Rain
10:55 AM 48.2 °F - 48.2 °F 100% 29.74 in 0.5 mi SSW 16.1 mph 29.9 mph 0.01 in   Drizzle
11:15 AM 48.2 °F - 48.2 °F 100% 29.74 in 0.2 mi West 26.5 mph 33.4 mph 0.19 in Rain Heavy Rain
11:35 AM 48.2 °F - 48.2 °F 100% 29.74 in 0.2 mi West 19.6 mph 25.3 mph 0.27 in Rain Rain
11:55 AM 48.2 °F - 48.2 °F 100% 29.72 in 0.2 mi West 18.4 mph 28.8 mph 0.02 in Rain Rain
12:15 PM 48.2 °F - 48.2 °F 100% 29.70 in 0.2 mi West 19.6 mph 23.0 mph 0.04 in Rain Rain
12:35 PM 48.2 °F - 48.2 °F 100% 29.69 in 1.0 mi WSW 25.3 mph 32.2 mph 0.11 in Rain Rain
12:55 PM 46.4 °F 38.7 °F 46.4 °F 100% 29.66 in 10.0 mi WSW 20.7 mph 29.9 mph 0.02 in Rain Light Rain
1:15 PM 46.4 °F 39.5 °F 46.4 °F 100% 29.65 in 10.0 mi WSW 17.3 mph 25.3 mph 0.02 in Rain Rain
1:35 PM 46.4 °F 40.1 °F 46.4 °F 100% 29.62 in 10.0 mi SW 15.0 mph 25.3 mph 0.02 in   Mostly Cloudy
1:55 PM 46.4 °F 39.5 °F 46.4 °F 100% 29.61 in 10.0 mi SW 17.3 mph 24.2 mph N/A   Light Drizzle
2:15 PM 46.4 °F 39.0 °F 44.6 °F 93% 29.62 in 10.0 mi WSW 19.6 mph 25.3 mph N/A   Mostly Cloudy
2:35 PM 46.4 °F 40.4 °F 44.6 °F 93% 29.57 in 10.0 mi SW 13.8 mph 19.6 mph N/A   Mostly Cloudy
2:55 PM 46.4 °F 38.7 °F 46.4 °F 100% 29.60 in 10.0 mi WSW 20.7 mph 27.6 mph N/A   Mostly Cloudy
3:15 PM 46.4 °F 40.4 °F 46.4 °F 100% 29.57 in 10.0 mi SW 13.8 mph 25.3 mph N/A   Overcast
3:36 PM 46.4 °F 39.8 °F 46.4 °F 100% 29.59 in 10.0 mi WSW 16.1 mph 23.0 mph N/A   Overcast
3:55 PM 46.4 °F 39.2 °F 46.4 °F 100% 29.57 in 10.0 mi WSW 18.4 mph 23.0 mph N/A   Overcast
4:15 PM 46.4 °F 39.5 °F 46.4 °F 100% 29.56 in 10.0 mi West 17.3 mph 28.8 mph N/A   Overcast
4:35 PM 46.4 °F 39.0 °F 46.4 °F 100% 29.56 in 10.0 mi WSW 19.6 mph 31.1 mph N/A   Overcast
4:55 PM 46.4 °F 39.5 °F 46.4 °F 100% 29.55 in 10.0 mi WSW 17.3 mph 26.5 mph N/A   Overcast
5:15 PM 46.4 °F 38.7 °F 44.6 °F 93% 29.54 in 10.0 mi West 20.7 mph 27.6 mph N/A   Overcast
5:35 PM 44.6 °F 37.2 °F 44.6 °F 100% 29.54 in 10.0 mi West 17.3 mph 25.3 mph N/A   Mostly Cloudy
5:56 PM 44.6 °F 37.2 °F 42.8 °F 93% 29.54 in 10.0 mi West 17.3 mph 24.2 mph N/A   Mostly Cloudy
6:15 PM 44.6 °F 36.6 °F 42.8 °F 93% 29.55 in 10.0 mi WSW 19.6 mph 26.5 mph N/A   Mostly Cloudy
6:35 PM 44.6 °F 36.9 °F 42.8 °F 93% 29.55 in 10.0 mi WSW 18.4 mph 28.8 mph N/A   Overcast
6:55 PM 42.8 °F 33.3 °F 42.8 °F 100% 29.54 in 7.0 mi West 24.2 mph 31.1 mph 0.03 in Rain Rain
7:16 PM 42.8 °F 35.4 °F 42.8 °F 100% 29.56 in 10.0 mi West 15.0 mph 24.2 mph 0.03 in   Overcast
7:35 PM 42.8 °F 33.5 °F 41.0 °F 93% 29.57 in 10.0 mi West 23.0 mph 31.1 mph 0.03 in   Overcast
8:15 PM 39.2 °F 30.2 °F 37.4 °F 93% 29.59 in 10.0 mi WNW 17.3 mph 26.5 mph N/A Thunderstorm Overcast
8:35 PM 39.2 °F 29.3 °F 37.4 °F 93% 29.60 in 10.0 mi West 20.7 mph 35.7 mph N/A   Overcast
8:55 PM 39.2 °F 28.3 °F 35.6 °F 87% 29.61 in 10.0 mi West 25.3 mph 34.5 mph N/A   Overcast
9:35 PM 37.4 °F 26.6 °F 35.6 °F 93% 29.63 in 10.0 mi West 21.9 mph 29.9 mph N/A   Overcast
10:15 PM 37.4 °F 25.4 °F 33.8 °F 87% 29.63 in 10.0 mi West 27.6 mph 36.8 mph N/A   Overcast
10:55 PM 35.6 °F 23.2 °F 30.2 °F 81% 29.63 in 10.0 mi West 26.5 mph 34.5 mph N/A   Overcast
11:15 PM 35.6 °F 23.7 °F 30.2 °F 81% 29.64 in 10.0 mi WNW 24.2 mph 33.4 mph N/A   Overcast
11:55 PM 33.8 °F 21.9 °F 30.2 °F 87% 29.65 in 10.0 mi West 21.9 mph 36.8 mph N/A   Overcast